Unicom:                    122.8

AWOS:                  118.275

Elevation           1458’ MSL

TPA:                   2500’ MSL

06/24:         5003’ L   75’ W

PAPI:       06/Left     24/Left

(Operate lights on unicom freq.)

Traffic Pattern: Left

Beacon: Sunset to Sunrise

Windsock: yes, lighted

Segmented Circle: No

 

Cleveland Center: 126.72/291.65

FSS: Altoona

[Source: ADDS]
METAR
KFKL 111035Z AUTO 21005KT 10SM BKN007 OVC070 14/13 A2949 RMK AO2 RAE00 CIG 004V011 P0000 =
KFKL 110835Z 1109/1206 13011KT 6SM -SHRA BKN007 BKN045 FM111100 16011KT P6SM BKN060 FM111400 19011G20KT P6SM SCT060 FM120300 16005KT P6SM OVC025
TAF
KFKL 110835Z 1109/1206 13011KT 6SM -SHRA BKN007 BKN045 FM111100 16011KT P6SM BKN060 FM111400 19011G20KT P6SM SCT060 FM120300 16005KT P6SM OVC025 =
[Source: ADDS]
METAR
KDUJ 111013Z AUTO 13007KT 3SM -RA BR BKN005 OVC010 13/12 A2949 RMK AO2 P0016 T01330117 =
KDUJ 110537Z 1106/1206 13010KT 5SM -SHRA BKN080 TEMPO 1107/1110 BKN008 FM111100 17008KT P6SM BKN060 FM111500 21011G22KT P6SM BKN050 FM120000 24009KT P6SM BKN050
TAF
KDUJ 110537Z 1106/1206 13010KT 5SM -SHRA BKN080 TEMPO 1107/1110 BKN008 FM111100 17008KT P6SM BKN060 FM111500 21011G22KT P6SM BKN050 FM120000 24009KT P6SM BKN050 =

Economics.